星链-4002 (STARLINK-4002 )

导读 | 星芒AI

STARLINK-4002 是 SpaceX 星链计划中的一颗低轨通信卫星,属于第 40 批部署的星链卫星群。该卫星旨在为全球用户提供高速互联网服务,尤其关注网络覆盖不足的地区。它运行在约 550 公里的近地轨道,采用先进的推进系统和激光通信技术,以提高数据传输效率和卫星自主性。作为星链星座的一部分,STARLINK-4002 有助于构建更稳定、低延迟的全球互联网网络。

基本信息
目录编号:
52612
目录名称:
STARLINK-4002
国际标识:
2022-052Q
轨道中心:
EARTH
卫星名称:
星链-4002
卫星全名:
星链-4002 (STARLINK-4002 )
卫星状态:
在轨 (已飞行1317 天)
发射日期:
2022-05-14 UTC
国别 :
美国 (US)
星等 :
--
轨道信息
数据来源 国际轨道数据
星历时间: 2025-12-21T01:58:50+0800
11小时前
查看轨道信息
半长轴: 6917.944km
偏心率: 0.0001174
轨道倾角: 53.217°
近地点辐角 88.955°
升交点赤经 273.495°
平近点角 271.158°
近地点: 538.994km
远地点: 540.62km
周期: 95.439分钟
每日圈数: 15.088192
详细信息
固有亮度:
5
最大亮度:
2.5
卫星平台:
Starlink v1.5
覆盖范围:
全球
运营商:
太空探索技术公司
运营商所在国:
美国
制造商(研发单位):
太空探索技术公司
制造商所在国:
美国
使用方式:
暂无
卫星简介
星链(Starlink)计划是由太空探索技术公司(SpaceX)提出的一个巨型低轨卫星互联网星座项目,计划在2019年至2024年间在太空搭建由约1.2万颗卫星组成的“星链”网络,其中1584颗将部署在地球上空550千米处的近地轨道,并从2020年开始工作。该卫星仍在工作。
2D轨道图
3D轨道图
轨道高度分析图
轨道倾角分析图
轨道综合分析图
查看轨道综合分析图